Beaufort, NC

6:27 AM EST on December 15, 2019 (GMT -0500)
Smith

Weather History for KMRH - October, 2019

Change the Weather History Date:

Monday, October 28, 2019

  Actual Average Record
Temperature  
Mean Temperature 70 °F -  
Max Temperature 75 °F 73 °F 83 °F (1984)
Min Temperature 64 °F 52 °F 34 °F (1957)
Cooling Degree Days 4    
Growing Degree Days 20 (Base 50)    
Moisture  
Dew Point 66 °F    
Average Humidity 82    
Maximum Humidity 100    
Minimum Humidity 55    
Precipitation  
Precipitation 0.00 in - - ()
Sea Level Pressure  
Sea Level Pressure 30.06 in    
Wind  
Wind Speed 8 mph (NNE)    
Max Wind Speed 16 mph    
Max Gust Speed 23 mph    
Visibility 10 miles    
Events      
Averages and records for this station are not official NWS values.
T = Trace of Precipitation, MM = Missing Value Source: NWS Daily Summary

Daily Weather History Graph

Daily Weather History Graph

Search for Another Location

Airport or City:

Astronomy

Oct. 28, 2019 Rise Set
Actual Time 7:23 AM EDT 6:17 PM EDT
Civil Twilight 6:57 AM EDT 6:42 PM EDT
Nautical Twilight 6:27 AM EDT 7:12 PM EDT
Astronomical Twilight 5:58 AM EDT 7:41 PM EDT
Moon 7:43 AM EDT (10/28) 7:01 PM EDT (10/28)
Length of Visible Light 11h 45m
Length of Day
10h 53m
New Moon, 0% of the Moon is Illuminated
Oct 28
New Moon
Nov 4
First Quarter
Nov 12
Full
Nov 19
Last Quarter
Nov 26
New

Hourly Weather History & Observations

Time (EDT) Temp. Dew Point Humidity Pressure Visibility Wind Dir Wind Speed Gust Speed Precip Events Conditions
12:58 AM 75.0 °F 73.9 °F 96% 29.96 in 6.0 mi West 5.8 mph - N/A   Overcast
2:53 AM 73.4 °F 73.4 °F 100% 29.97 in 9.0 mi WNW 6.9 mph - N/A   Overcast
2:58 AM 75.0 °F 73.0 °F 94% 29.97 in 9.0 mi NW 6.9 mph - N/A   Overcast
3:11 AM 75.0 °F 73.0 °F 94% 29.97 in 10.0 mi NW 8.1 mph - N/A   Overcast
3:20 AM 75.0 °F 73.0 °F 94% 29.97 in 10.0 mi NW 6.9 mph - N/A   Overcast
3:29 AM 73.9 °F 73.0 °F 97% 29.97 in 9.0 mi WNW 4.6 mph - N/A   Mostly Cloudy
3:33 AM 73.0 °F 72.0 °F 96% 29.97 in 9.0 mi NW 5.8 mph - N/A   Scattered Clouds
3:58 AM 73.9 °F 73.0 °F 97% 29.98 in 10.0 mi NNW 5.8 mph - N/A   Scattered Clouds
4:17 AM 73.9 °F 73.0 °F 97% 29.98 in 9.0 mi NNW 5.8 mph - N/A   Overcast
4:43 AM 73.0 °F 73.0 °F 100% 29.98 in 9.0 mi NW 4.6 mph - N/A   Mostly Cloudy
4:58 AM 73.0 °F 72.0 °F 96% 29.99 in 9.0 mi NNW 4.6 mph - N/A   Scattered Clouds
5:27 AM 73.0 °F 72.0 °F 96% 30.00 in 9.0 mi NW 4.6 mph - N/A   Scattered Clouds
5:36 AM 73.0 °F 72.0 °F 96% 30.00 in 9.0 mi North 5.8 mph - N/A   Mostly Cloudy
5:58 AM 73.0 °F 72.0 °F 96% 30.01 in 8.0 mi North 5.8 mph - N/A   Mostly Cloudy
6:58 AM 70.0 °F 68.0 °F 93% 30.03 in 10.0 mi NNE 8.1 mph - N/A   Partly Cloudy
7:58 AM 68.0 °F 62.1 °F 81% 30.06 in 10.0 mi NE 8.1 mph - N/A   Clear
8:58 AM 71.1 °F 63.0 °F 75% 30.07 in 10.0 mi NE 11.5 mph - N/A   Clear
9:58 AM 73.0 °F 61.0 °F 66% 30.09 in 10.0 mi NE 10.4 mph 19.6 mph N/A   Clear
10:58 AM 75.9 °F 64.9 °F 69% 30.10 in 10.0 mi NE 10.4 mph - N/A   Clear
11:55 AM 75.2 °F 64.4 °F 69% 30.10 in 10.0 mi NE 11.5 mph - N/A   Mostly Cloudy
11:58 AM 75.9 °F 64.0 °F 67% 30.11 in 10.0 mi NE 15.0 mph 21.9 mph N/A   Mostly Cloudy
12:13 PM 75.0 °F 63.0 °F 66% 30.11 in 10.0 mi NE 16.1 mph 23.0 mph N/A   Scattered Clouds
12:58 PM 75.0 °F 63.0 °F 66% 30.10 in 10.0 mi NE 16.1 mph 20.7 mph N/A   Clear
1:58 PM 73.9 °F 62.1 °F 66% 30.09 in 10.0 mi NNE 13.8 mph 20.7 mph N/A   Clear
2:58 PM 73.9 °F 60.1 °F 62% 30.09 in 10.0 mi NNE 10.4 mph 20.7 mph N/A   Clear
3:58 PM 73.0 °F 55.9 °F 55% 30.10 in 10.0 mi NE 12.7 mph 20.7 mph N/A   Mostly Cloudy
4:28 PM 73.0 °F 57.0 °F 57% 30.10 in 10.0 mi NE 9.2 mph - N/A   Overcast
4:58 PM 71.1 °F 57.9 °F 63% 30.10 in 10.0 mi NE 12.7 mph - N/A   Mostly Cloudy
5:33 PM 71.1 °F 60.1 °F 68% 30.10 in 10.0 mi NE 8.1 mph - N/A   Mostly Cloudy
5:58 PM 70.0 °F 60.1 °F 71% 30.11 in 10.0 mi NE 8.1 mph - N/A   Overcast
6:58 PM 69.1 °F 61.0 °F 75% 30.12 in 10.0 mi NE 9.2 mph - N/A   Mostly Cloudy
7:15 PM 68.0 °F 62.1 °F 81% 30.11 in 10.0 mi NE 8.1 mph - N/A   Scattered Clouds
7:50 PM 68.0 °F 62.1 °F 81% 30.12 in 10.0 mi NE 9.2 mph - N/A   Mostly Cloudy
7:58 PM 68.0 °F 62.1 °F 81% 30.12 in 10.0 mi NE 8.1 mph - N/A   Mostly Cloudy
8:58 PM 68.0 °F 62.1 °F 81% 30.13 in 10.0 mi NE 9.2 mph - N/A   Overcast
9:58 PM 66.9 °F 62.1 °F 84% 30.14 in 10.0 mi NNE 9.2 mph - N/A   Overcast
10:18 PM 66.0 °F 62.1 °F 87% 30.14 in 10.0 mi NNE 6.9 mph - N/A   Partly Cloudy
10:58 PM 64.9 °F 62.1 °F 90% 30.14 in 10.0 mi NE 6.9 mph - N/A   Clear
11:58 PM 64.0 °F 62.1 °F 93% 30.15 in 10.0 mi NNE 4.6 mph - N/A   Mostly Cloudy